Showing default

AEROCUBE 6A, 40045

Orbit data source: Space-Track

AEROCUBE 6A, 40045 is a payload satellite owned by AERO (US) in SSO that was launched on Thu, 19 Jun 2014 UTC via a DNEPR launch vehicle from the Orenburg, Russia (OREN). Payload-class satellites include a variety of spacecraft equipped with specific instruments for various scientific and technological missions. These include communications satellites like Starlink; space stations such as the ISS; scientific satellites like the Hubble; Earth observation satellites from companies like Planet Labs, Umbra, and HawkEye 360; GPS; miniature CubeSats for education and research; and military/defense satellites.

Loading next visibility...
Identifier
40045, 2014-033AM
Orbit
SSO
Country
Flag of USUS
Related business
Manufacturer
AERO
Mission
Operational Defense Technology
Bus & Motor
CUBESAT 0.5U, Unknown motor
Mass
~0.5 kg wet, ~0.5 kg dry
Launch date (UTC)
2014-06-19 (12 years ago)
Launch vehicle
DNEPR
Launch site
Orenburg, Russia (OREN)
Object type
Payload
Rocket body
Debris
Shape & HBR
Box + 2 Pan, 0.1 m
Radar Cross Section
0.010 m², Medium (>0.1 m² and < 1m²)

Expand to show TLE details & history
Last TLE update: 1 day ago

TLE from 1 day ago
0 AEROCUBE 6A
1 40045U 14033AM  26253.42972477  .00004261  00000-0  35192-3 0  9990
2 40045  97.7330  59.5629 0039775  88.5963 271.9816 14.98887136659380
Epoch: 2026-09-10T10:18Z
TLE epoch observation values (Epoch: 2026-09-10T10:18:48.220Z)
Latitude
0.00003°
Longitude
-84.60557°
Altitude
572.54 km
Speed
7.575 km/s
True Right ascension
03h 58m 15s
True Declination
0° 00' 00"
Sunlit
Object was in daylight at epoch
Visualization orbit readout
Latitude
Unknown
Longitude
Unknown
Altitude
Unknown
Speed
Unknown
Apparent Right ascension
Unknown
Apparent Declination
Unknown
Sunlit
N/A
Visualization observer readout
Local Sidereal Time
04:28:21
Azimuth
Unknown
Elevation
Unknown
Doppler factor
Unknown
Orbital elements
Apogee altitude
594.967 km
Perigee altitude
539.716 km
Semi-major axis
6,945.479 km
Eccentricity
0.00398
Inclination
97.733°
RAAN
59.5629°
Arg. of periapsis
88.5963°
True anomaly
271.52601°
Mean anomaly
271.9816°
Eccentric anomaly
271.75381°
Mean motion
3.74964 °/min
Orbital period
96.01 mins
BSTAR
0.00035192
Loading maneuver chart data...
Computing Atmospheric mass density...
Loading historical data...
Loading historical data...
Loading historical data...
Loading historical data...
Loading historical data...
Loading historical data...
Loading historical data...

Documentation

Showing up to 5 results
|